This is the latest recevied weather packets stored in our database for station/object KD0JCP-10. If no packets are shown the sender has not sent any weather packets the latest 10 day(s).
| Time | Temp. | Humidity | Pressure | Rain* | Wind** | Luminosity | Snow |
|---|---|---|---|---|---|---|---|
| 1777677684 | 15° C | 34% | 1019.5 hPa | 0 mm | - | - | - |
| 1777677384 | 15° C | 33% | 1019.4 hPa | 0 mm | - | - | - |
| 1777677084 | 15° C | 34% | 1019.3 hPa | 0 mm | - | - | - |
| 1777676784 | 15° C | 33% | 1019.3 hPa | 0 mm | - | - | - |
| 1777676484 | 15.56° C | 34% | 1019.3 hPa | 0 mm | - | - | - |
| 1777676184 | 15.56° C | 35% | 1019.4 hPa | 0 mm | - | - | - |
| 1777675884 | 15.56° C | 33% | 1019.4 hPa | 0 mm | - | - | - |
| 1777675584 | 15.56° C | 33% | 1019.4 hPa | 0 mm | - | - | - |
| 1777675284 | 15.56° C | 32% | 1019.4 hPa | 0 mm | - | - | - |
| 1777674984 | 15.56° C | 33% | 1019.4 hPa | 0 mm | - | - | - |
| 1777674684 | 15.56° C | 34% | 1019.5 hPa | 0 mm | - | - | - |
| 1777674388 | 15.56° C | 35% | 1019.6 hPa | 0 mm | - | - | - |
| 1777674085 | 15.56° C | 35% | 1019.6 hPa | 0 mm | - | - | - |
| 1777673784 | 15.56° C | 36% | 1019.8 hPa | 0 mm | - | - | - |
| 1777673484 | 15.56° C | 33% | 1019.7 hPa | 0 mm | - | - | - |
| 1777673184 | 15.56° C | 35% | 1019.8 hPa | 0 mm | - | - | - |
| 1777672884 | 15.56° C | 35% | 1019.8 hPa | 0 mm | - | - | - |
| 1777672584 | 15.56° C | 35% | 1020 hPa | 0 mm | - | - | - |
| 1777672284 | 15.56° C | 34% | 1019.8 hPa | 0 mm | - | - | - |
| 1777671984 | 15.56° C | 36% | 1019.9 hPa | 0 mm | - | - | - |
| 1777671684 | 15° C | 36% | 1019.9 hPa | 0 mm | - | - | - |
| 1777671384 | 15.56° C | 35% | 1020 hPa | 0 mm | - | - | - |
| 1777671084 | 15.56° C | 37% | 1020.1 hPa | 0 mm | - | - | - |
| 1777670784 | 15.56° C | 36% | 1020.2 hPa | 0 mm | - | - | - |
| 1777670484 | 15.56° C | 36% | 1020.2 hPa | 0 mm | - | - | - |
* Rain latest hour (hover to see other rain measurements)
** Current wind speed in m/s (hover to see current wind gust speed)